Starlink 2371

operational
NORAD ID: 47911 Int'l Des: 2021-021 Owner: SPXS Country: US Constellation: starlink
LEOCIRCULAR

About Starlink 2371

Description loading...

Live Position

Loading 3D Globe...

Upcoming Passes

Altitude History

Altitude vs Time

uPlot chart will show altitude changes over time

Two-Line Element Set

1 47911U 21021BD 26061.00097439 .00001307 00000-0 56247-4 0 9994
2 47911 53.1603 316.7078 0001121 97.6970 262.4158 15.30196617274737
Epoch: Mar 2, 2026 • Age: 30 hours

Current Status

Altitude 475.5 km
Velocity 7.63 km/s
Sub-Earth Point 6.52°N, 67.16°E
Launch Date Mar 14, 2021
Age 4.9 years
Type internet

Technical Details

Classification Payload
Mass 260.00 kg
Dry Mass 248.00 kg
Total Mass 260.00 kg
Length 0.20 m
Diameter 2.80 m
Span 9.00 m
Shape Box + pan
Manufacturer SPXS
Bus Type Starlink
Phase Status In Orbit
Owner/State SPXS/US

Large Constellations

Loading constellations...